www.pogodaiklimat.ru

Архив погоды в Ганновере (Германия)

Время
(UTC), дата
16 28.11
17 28.11
18 28.11
19 28.11
20 28.11
21 28.11
22 28.11
23 28.11
00 29.11
01 29.11
02 29.11
04 29.11
05 29.11
06 29.11
07 29.11
08 29.11
09 29.11
10 29.11
11 29.11
12 29.11
13 29.11
14 29.11
15 29.11
16 29.11
17 29.11
18 29.11
19 29.11
20 29.11
21 29.11
22 29.11
23 29.11
00 30.11
01 30.11
02 30.11
03 30.11
04 30.11
05 30.11
06 30.11
07 30.11
08 30.11
09 30.11
10 30.11
11 30.11
12 30.11
13 30.11
14 30.11
15 30.11
16 30.11
17 30.11
18 30.11
19 30.11
20 30.11
21 30.11
22 30.11
23 30.11
00 1.12
01 1.12
02 1.12
03 1.12
04 1.12
05 1.12
06 1.12
07 1.12
08 1.12
09 1.12
10 1.12
11 1.12
12 1.12
13 1.12
14 1.12
15 1.12
16 1.12
17 1.12
18 1.12
19 1.12
20 1.12
21 1.12
22 1.12
23 1.12
00 2.12
01 2.12
02 2.12
03 2.12
04 2.12
05 2.12
06 2.12
07 2.12
08 2.12
09 2.12
10 2.12
11 2.12
12 2.12
13 2.12
14 2.12
15 2.12
16 2.12
17 2.12
18 2.12
19 2.12
20 2.12
21 2.12
22 2.12
23 2.12
00 3.12
01 3.12
02 3.12
03 3.12
04 3.12
05 3.12
06 3.12
07 3.12
08 3.12
09 3.12
10 3.12
11 3.12
12 3.12
13 3.12
14 3.12
15 3.12
16 3.12
17 3.12
18 3.12
19 3.12
20 3.12
21 3.12
22 3.12
23 3.12
00 4.12
01 4.12
02 4.12
03 4.12
04 4.12
05 4.12
06 4.12
09 4.12
10 4.12
12 4.12
13 4.12
14 4.12
16 4.12
17 4.12
18 4.12
19 4.12
20 4.12
21 4.12
22 4.12
23 4.12
00 5.12
01 5.12
02 5.12
03 5.12
04 5.12
05 5.12
06 5.12
07 5.12
08 5.12
09 5.12
10 5.12
11 5.12
12 5.12
13 5.12
14 5.12
15 5.12
16 5.12
17 5.12
Ветер
(напр.,м/с)
Видим. Явления Облачность Т
(С)
Тd
(С)
f
(%)
Тe
(С)
Тes
(С)
Комфортность P
(гПа)
Po
(гПа)
Тmin
(С)
Tmax
(С)
R
(мм)
R24
(мм)
S
(см)
В 3-4
{5}
30 км 9/9 1440 м +6.0 +3.1 82 +3 +3 тепло 1012.7 1005.4
В 2-3
{4}
27 км 10/0 2000 м +5.1 +3.0 86 +2 +2 тепло 1012.9 1005.5
В 2-3
{5}
28 км в посл. час дождь 10/10 800 м +4.8 +3.1 89 +2 +2 по сезону 1013.3 1005.9 +4.5 +6.6 0.0
В 2-3
{3}
24 км 10/10 800 м +4.8 +3.3 90 +2 +2 тепло 1013.5 1006.1
В 2-3
{4}
22 км в посл. час дождь 9/9 700 м +4.8 +3.0 88 +2 +2 тепло 1013.7 1006.3
В 2-3
{4}
19 км слаб. морось 10/10 700 м +4.4 +2.9 90 +2 +2 по сезону 1013.9 1006.5 0.0
В 2-2
{3}
20 км в посл. час морось 10/10 630 м +4.6 +3.0 89 +2 +2 тепло 1014.0 1006.6
В 2-3
{3}
22 км 10/10 570 м +4.8 +3.2 89 +2 +2 тепло 1014.3 1006.9
В 2-3
{4}
22 км 10/10 540 м +4.7 +3.2 90 +2 +2 по сезону 1014.4 1007.0 0.0
В 2-2
{3}
21 км 10/10 540 м +4.8 +3.2 89 +2 +2 тепло 1014.6 1007.2
В 2-3
{3}
21 км в посл. час морось 10/10 720 м +4.6 +3.2 91 +2 +2 тепло 1014.7 1007.3
В 2-2
{2}
19 км 10/10 750 м +4.5 +3.2 91 +2 +2 тепло 1015.3 1007.9
В 2-3
{3}
17 км слаб. морось 10/10 660 м +4.3 +2.9 91 +1 +1 тепло 1015.8 1008.4
В 2-3
{3}
10 км слаб. морось с дождем 10/10 600 м +4.2 +3.0 92 +1 +1 по сезону 1016.3 1008.9 +4.2 +5.1 0.0
В 1-2
{3}
15 км в посл. час дождь 10/10 540 м +4.4 +3.2 92 +3 +3 тепло 1016.7 1009.3
В 2-2
{2}
15 км 10/10 500 м +4.4 +3.1 91 +2 +2 тепло 1017.3 1009.9
В 2-3
{3}
11 км в посл. час дождь 10/10 480 м +4.6 +3.5 93 +2 +2 по сезону 1017.8 1010.4 0.0
В 2-2
{3}
12 км 9/9 480 м +5.0 +3.6 91 +2 +2 тепло 1018.2 1010.8
В 2-2
{3}
8000 м слаб. морось с дождем 9/9 480 м +5.3 +4.0 91 +3 +3 тепло 1018.4 1011.0
В 3-3
{4}
9000 м в посл. час дождь 10/10 210 м +5.5 +4.1 91 +2 +2 по сезону 1018.5 1011.1 0.0
В 3-4
{4}
11 км 10/10 330 м +5.7 +4.1 89 +2 +2 тепло 1018.8 1011.4
В 3-3
{3}
10 км 9/9 400 м +5.9 +4.0 88 +3 +3 тепло 1019.1 1011.7
В 2-3
{4}
11 км 10/10 360 м +5.8 +4.1 89 +3 +3 по сезону 1019.4 1012.0
В 2-3
{3}
11 км 10/10 360 м +5.7 +4.0 89 +3 +3 тепло 1019.8 1012.4
В 3-4
{4}
7000 м слаб. морось 10/10 360 м +5.5 +3.8 89 +2 +2 тепло 1020.1 1012.7
В 3-5
{5}
5000 м слаб. морось с дождем 9/9 360 м +5.1 +4.0 93 +2 +2 по сезону 1020.6 1013.2 +4.2 +5.9 0.0
В 2-3
{5}
3400 м слаб. морось с дождем 10/10 150 м +4.9 +4.3 96 +2 +2 тепло 1020.8 1013.4
В 2-3
{4}
3600 м слаб. морось 10/10 150 м +4.8 +4.3 97 +2 +2 тепло 1020.9 1013.5
В 3-3
{5}
3800 м в посл. час морось 10/10 120 м +4.8 +4.3 97 +1 +1 по сезону 1021.2 1013.8 0.5
В 2-3
{4}
3400 м дымка 10/10 90 м +4.7 +4.3 97 +2 +2 тепло 1021.3 1013.9
В 3-4
{4}
3200 м в посл. час морось 10/10 90 м +4.5 +4.1 97 +1 +1 тепло 1021.5 1014.1
В 3-4
{5}
4700 м дымка 10/10 120 м +4.5 +4.1 97 +1 +1 по сезону 1021.7 1014.3 0.0
В 3-4
{4}
4100 м дымка 10/10 90 м +4.4 +4.0 97 +1 +1 по сезону 1021.7 1014.3
В 3-4
{5}
5000 м в посл. час дождь 10/10 120 м +4.3 +3.8 97 0 0 тепло 1021.8 1014.4
В 3-4
{5}
6000 м дымка 10/10 90 м +4.3 +3.8 97 0 0 по сезону 1021.8 1014.4 0.0
В 4-4
{4}
6000 м дымка 10/10 90 м +4.3 +3.8 97 -0 -0 по сезону 1022.1 1014.7
В 3-4
{4}
5000 м дымка 10/10 90 м +4.3 +4.0 98 0 0 тепло 1022.5 1015.1
В 3-4
{5}
4200 м дымка 10/10 90 м +4.2 +3.9 98 0 0 по сезону 1022.8 1015.4 +4.2 +5.1 0.5
В 3-5
{5}
4500 м дымка 10/10 90 м +4.2 +3.9 98 0 0 по сезону 1023.1 1015.7
В 3-4
{5}
4200 м дымка 10/10 90 м +4.3 +3.9 97 0 0 тепло 1023.5 1016.1
СВ 2-3
{5}
4100 м дымка 10/10 90 м +4.6 +4.2 97 +2 +2 по сезону 1024.0 1016.6
СВ 3-4
{4}
3800 м дымка 10/10 90 м +4.9 +4.4 97 +1 +1 по сезону 1024.2 1016.8
СВ 3-4
{4}
2900 м дымка 10/10 90 м +5.0 +4.7 98 +1 +1 тепло 1024.1 1016.7
В 3-4
{5}
2600 м дымка 10/10 90 м +5.1 +4.8 98 +1 +1 по сезону 1024.3 1016.9
СВ 4-5
{5}
2200 м дымка 10/10 90 м +5.0 +4.7 98 +1 +1 по сезону 1024.5 1017.1
СВ 3-4
{5}
800 м туман 10/10 60 м +4.9 +4.8 99 +1 +1 тепло 1024.6 1017.2
СВ 3-4
{5}
1800 м в посл. час туман 10/10 60 м +4.6 +4.6 100 +1 +1 по сезону 1024.8 1017.4
СВ 3-5
{5}
1800 м дымка 10/10 90 м +4.6 +4.5 99 +1 +1 по сезону 1025.0 1017.6
СВ 2-3
{5}
2600 м дымка 10/10 90 м +4.5 +4.3 99 +2 +2 тепло 1025.6 1018.1
СВ 3-5
{5}
1500 м дымка 10/10 90 м +4.5 +4.3 99 +1 +1 по сезону 1025.9 1018.4 +4.2 +5.2
СВ 3-4
{4}
1700 м в посл. час морось 10/10 90 м +4.4 +4.3 99 +1 +1 по сезону 1026.3 1018.8
СВ 2-3
{5}
1400 м дымка 10/10 90 м +4.4 +4.3 99 +1 +1 тепло 1026.6 1019.1
СВ 2-3
{5}
1700 м дымка 10/10 120 м +4.3 +4.2 99 +1 +1 по сезону 1026.9 1019.4 0.0
СВ 3-4
{5}
3200 м дымка 10/10 180 м +4.0 +3.6 97 0 0 по сезону 1026.9 1019.4
В 2-3
{4}
3800 м дымка 10/10 210 м +3.9 +3.4 97 +1 +1 тепло 1027.0 1019.5
СВ 2-3
{5}
3100 м дымка 10/10 180 м +3.7 +3.3 97 +1 +1 по сезону 1026.9 1019.4 0.0
В 4-4
{4}
3900 м дымка 10/10 180 м +3.7 +3.1 96 -1 -1 по сезону 1026.9 1019.4
В 3-4
{4}
4200 м дымка 10/10 180 м +3.5 +2.8 95 -1 -1 тепло 1027.3 1019.8
В 4-4
{5}
4900 м дымка 10/10 210 м +3.5 +2.6 94 -1 -1 по сезону 1027.3 1019.8
В 4-5
{5}
2300 м дымка 10/10 90 м +3.2 +2.7 97 -2 -2 по сезону 1027.3 1019.8
В 4-5
{5}
2700 м дымка 10/10 90 м +2.5 +2.0 96 -3 -3 тепло 1027.5 1020.0
В 4-5
{5}
1900 м дымка 10/10 90 м +2.1 +1.7 97 -3 -3 прохладно 1027.9 1020.4 +2.1 +4.5
В 4-5
{5}
1700 м дымка 10/10 60 м +1.5 +1.2 98 -4 -4 по сезону 1028.4 1020.8
В 3-4
{5}
2700 м дымка 10/10 90 м +1.6 +1.1 96 -3 -3 тепло 1028.7 1021.1
В 4-5
{5}
3900 м в посл. час дождь 10/10 150 м +1.7 +0.8 94 -4 -4 прохладно 1029.0 1021.4 0.0
В 3-5
{5}
4600 м дымка 10/10 120 м +1.9 +1.1 94 -3 -3 по сезону 1029.1 1021.5
В 4-5
{5}
4200 м дымка 10/10 120 м +1.3 +0.4 94 -4 -4 по сезону 1028.9 1021.3
В 3-4
{5}
5000 м дымка 10/10 150 м +1.3 +0.2 92 -3 -3 прохладно 1028.7 1021.1
СВ 3-4
{4}
5000 м дымка 10/10 180 м +2.0 +0.9 92 -2 -2 по сезону 1028.4 1020.8
СВ 3-4
{4}
5000 м дымка 10/10 180 м +1.8 +0.7 92 -3 -3 по сезону 1028.3 1020.7
СВ 3-4
{5}
4400 м дымка 10/10 150 м +1.6 +0.6 93 -3 -3 прохладно 1028.6 1021.0
В 3-4
{4}
4000 м дымка 10/10 150 м +1.6 +0.7 94 -3 -3 по сезону 1028.3 1020.7
В 3-4
{5}
4300 м дымка 10/10 120 м +1.7 +0.8 94 -3 -3 по сезону 1028.3 1020.7
В 4-5
{5}
1600 м дымка 10/10 90 м +1.5 +1.2 98 -4 -4 прохладно 1028.4 1020.8 +1.2 +2.1
СВ 3-5
{5}
3200 м дымка 10/10 150 м +1.7 +0.9 94 -3 -3 по сезону 1028.6 1021.0
СВ 3-4
{4}
3700 м дымка 10/10 120 м +1.6 +0.9 95 -3 -3 по сезону 1028.5 1020.9
В 3-4
{5}
5000 м дымка 10/10 180 м +1.5 +0.4 92 -3 -3 прохладно 1028.4 1020.8
В 3-4
{5}
4000 м дымка 10/10 150 м +1.3 +0.5 94 -3 -3 по сезону 1028.2 1020.6
В 3-4
{6}
6000 м дымка 10/10 180 м +1.2 0.0 92 -3 -3 по сезону 1028.0 1020.4
В 4-5
{6}
4100 м дымка 10/10 210 м +1.0 -0.1 92 -4 -4 прохладно 1027.8 1020.2
СВ 4-5
{5}
4100 м дымка 10/10 150 м +0.7 -0.3 93 -5 -5 по сезону 1027.4 1019.8
В 4-6
{6}
5000 м дымка 10/10 210 м +0.4 -0.7 92 -5 -5 по сезону 1027.2 1019.6
В 4-5
{6}
4200 м снежные зёрна 9/9 180 м +0.3 -0.6 94 -5 -5 прохладно 1027.0 1019.4 0.0
В 4-5
{6}
4500 м в посл. час снег 10/10 180 м +0.4 -0.8 92 -5 -5 по сезону 1026.7 1019.1
В 4-5
{5}
4300 м в посл. час зёрна 10/10 210 м +0.5 -0.7 92 -5 -5 по сезону 1026.3 1018.7
В 4-5
{6}
4000 м дымка 10/10 210 м +0.4 -0.7 92 -5 -5 прохладно 1026.2 1018.6 +0.2 +1.7 0.0
СВ 3-4
{5}
4000 м дымка 10/10 180 м +0.4 -0.5 94 -4 -4 по сезону 1026.4 1018.8
В 5-6
{6}
4400 м в посл. час зёрна 10/10 180 м +0.6 -0.5 92 -5 -5 по сезону 1026.5 1018.9
В 5-6
{8}
5000 м в посл. час снег 10/10 210 м +0.8 -0.4 92 -5 -5 холодно 1026.6 1019.0 0.0
В 5-8
{9}
6000 м в посл. час снег 10/10 210 м +0.9 -0.5 90 -5 -5 по сезону 1026.6 1019.0
В 6-8
{8}
6000 м в посл. час осадки 9/9 240 м +1.2 -0.2 90 -5 -5 по сезону 1026.4 1018.8
СВ 5-6
{9}
9000 м 9/9 400 м +1.3 -0.9 85 -4 -4 холодно 1026.2 1018.6 0.0
СВ 5-7
{8}
8000 м слаб. снег 10/10 420 м +1.3 -0.7 87 -4 -4 по сезону 1025.8 1018.2
СВ 5-6
{8}
4300 м слаб. снег 9/9 330 м +0.8 -0.3 92 -5 -5 по сезону 1025.9 1018.3
СВ 5-7
{8}
8000 м в посл. час снег 10/10 270 м +0.9 -0.3 92 -5 -5 холодно 1025.9 1018.3 0.1
СВ 5-6
{7}
4600 м слаб. снег 9/9 330 м +0.7 -0.2 94 -5 -5 по сезону 1026.1 1018.5
СВ 5-7
{7}
4800 м снежные зёрна 10/10 240 м +0.7 -0.2 94 -5 -5 по сезону 1026.1 1018.5
СВ 5-6
{8}
6000 м снежные зёрна 9/9 420 м +0.5 -0.5 93 -6 -6 холодно 1026.2 1018.6 +0.4 +1.4 0.0
СВ 4-5
{7}
6000 м снежные зёрна 10/10 360 м +0.6 -0.4 93 -5 -5 по сезону 1026.2 1018.6
СВ 4-5
{6}
5000 м слаб. снег 9/9 360 м +0.3 -0.5 94 -5 -5 по сезону 1025.9 1018.3
СВ 5-7
{7}
10 км в посл. час снег 10/10 360 м +0.6 -0.7 91 -5 -5 холодно 1025.8 1018.2 0.1
В 5-8
{8}
11 км 10/10 400 м +0.7 -1.2 87 -5 -5 по сезону 1025.6 1018.0
В 6-8
{9}
9000 м 10/10 300 м +0.5 -1.4 87 -6 -6 по сезону 1025.6 1018.0
В 5-7
{9}
5000 м в посл. час зёрна 10/10 240 м +0.1 -1.3 90 -6 -6 холодно 1025.4 1017.8 0.0
В 6-8
{8}
8000 м 10/10 270 м -0.1 -2.3 85 -7 -7 по сезону 1025.3 1017.7
В 5-8
{9}
8000 м 10/10 270 м -0.3 -2.0 88 -7 -7 по сезону 1025.4 1017.8
В 5-8
{9}
7000 м дымка 10/10 270 м -0.5 -2.3 88 -7 -7 холодно 1025.4 1017.8
В 6-9
{9}
9000 м 10/10 300 м -0.7 -2.7 86 -8 -8 прохладно 1025.2 1017.6
В 6-7
{8}
7000 м в посл. час переохл. осадки (гололёд) 10/10 360 м -0.9 -2.6 88 -8 -8 по сезону 1025.1 1017.5
В 6-8
{9}
8000 м 10/10 300 м -1.0 -3.0 86 -8 -8 холодно 1025.0 1017.4 -1.0 +0.8 0.0 0.2
В 6-9
{9}
8000 м 10/10 330 м -1.1 -3.4 84 -8 -8 прохладно 1025.0 1017.4
В 5-7
{8}
6000 м дымка 10/10 270 м -1.3 -3.3 86 -8 -8 по сезону 1024.8 1017.2
В 6-7
{9}
8000 м 10/10 330 м -1.4 -3.9 83 -8 -8 очень
холодно
1024.7 1017.1
В 6-7
{7}
8000 м 10/10 360 м -1.2 -3.8 82 -8 -8 прохладно 1024.5 1016.9
В 4-6
{7}
7000 м дымка 10/10 360 м -1.1 -3.8 82 -7 -7 по сезону 1024.0 1016.4
В 4-6
{9}
7000 м снежные зёрна 10/10 400 м -1.0 -3.8 81 -7 -7 очень
холодно
1023.5 1015.9 0.0
В 5-6
{6}
7000 м снежные зёрна 10/10 450 м -0.9 -3.7 81 -7 -7 прохладно 1023.1 1015.5
В 5-6
{6}
6000 м снежные зёрна 10/10 420 м -0.8 -3.4 83 -7 -7 по сезону 1022.7 1015.1
В 4-6
{7}
7000 м в посл. час снег 10/10 450 м -0.9 -3.2 84 -7 -7 очень
холодно
1022.4 1014.8 0.0
В 4-6
{7}
7000 м дымка 9/9 360 м -1.0 -3.5 83 -7 -7 прохладно 1022.5 1014.9
В 5-7
{7}
7000 м в посл. час снег 10/10 360 м -1.0 -3.3 84 -7 -7 по сезону 1022.4 1014.8
В 4-6
{7}
7000 м дымка 10/10 300 м -1.0 -3.2 85 -7 -7 холодно 1022.2 1014.6 -1.4 -0.7 0.0
В 4-6
{7}
8000 м 10/10 330 м -1.1 -3.4 84 -7 -7 прохладно 1021.9 1014.3
В 4-6
{7}
7000 м дымка 10/10 270 м -1.0 -3.1 86 -7 -7 по сезону 1022.0 1014.4
В 4-6
{7}
6000 м дымка 10/10 270 м -1.0 -2.8 88 -7 -7 холодно 1021.9 1014.3
В 5-6
{7}
6000 м дымка 10/10 270 м -1.0 -2.8 88 -7 -7 прохладно 1021.7 1014.1
В 5-6
{7}
5000 м дымка 10/10 210 м -0.9 -2.5 89 -7 -7 по сезону 1021.6 1014.0
В 5-7
{7}
4100 м в посл. час переохл. осадки (гололёд) 10/10 210 м -1.0 -2.2 92 -7 -7 холодно 1021.3 1013.7 0.0
В 4-5
{7}
2800 м переохл. морось (гололёд), 10/10 210 м -1.1 -1.9 94 -7 -7 по сезону 1021.1 1013.5
В 5-6
{7}
3000 м слаб. переохл. морось (гололёд) 10/10 150 м -1.0 -1.9 94 -8 -8 по сезону 1020.8 1013.2
В 5-7
{7}
3000 м в посл. час переохл. осадки (гололёд) 10/10 120 м -0.9 -1.6 95 -7 -7 холодно 1020.5 1012.9 0.0
В 5-7
{7}
2900 м дымка 10/10 120 м -0.7 -1.4 95 -7 -7 по сезону 1020.5 1012.9
В 5-7
{8}
3600 м дымка 10/10 150 м -0.5 -1.2 95 -7 -7 по сезону 1020.4 1012.8
В 4-6
{8}
4800 м дымка 10/10 210 м -0.4 -1.3 94 -6 -6 холодно 1020.5 1012.9 -1.1 -0.4
В 5-6
{7}
6000 м дымка 10/10 240 м 0.0 -1.2 92 -6 -6 холодно 1020.7 1013.1
В 5-7
{8}
5000 м дымка 10/10 210 м +0.1 -1.2 91 -6 -6 по сезону 1020.7 1013.2
В 5-6
{8}
3300 м дымка 10/10 150 м +0.3 -0.5 94 -6 -6 холодно 1020.0 1012.5
В 4-6
{7}
3200 м в посл. час морось 10/10 150 м +0.5 -0.3 94 -5 -5 по сезону 1019.9 1012.4
В 5-7
{7}
2200 м в посл. час морось 10/10 150 м +0.7 +0.1 96 -5 -5 по сезону 1019.4 1011.9
СВ 4-6
{7}
2500 м слаб. морось 10/10 120 м +0.9 +0.5 97 -5 -5 тепло 1019.0 1011.5
В 4-5
{6}
2200 м слаб. морось 10/10 120 м +1.1 +0.7 97 -4 -4 тепло 1019.3 1011.8
СВ 3-5
{7}
2100 м слаб. морось 10/10 120 м +1.2 +0.9 98 -3 -3 прохладно 1019.6 1012.1 -0.4 +1.2 0.0
СВ 4-5
{5}
2900 м слаб. морось 10/10 120 м +1.3 +0.9 97 -4 -4 по сезону 1019.5 1012.0
СВ 4-6
{7}
3800 м в посл. час морось 10/10 120 м +1.4 +0.9 96 -4 -4 по сезону 1019.4 1011.9
СВ 4-5
{7}
2900 м слаб. морось 10/10 120 м +1.4 +0.9 96 -4 -4 прохладно 1019.4 1011.9 0.0
СВ 4-5
{5}
2800 м слаб. морось 10/10 120 м +1.5 +1.1 97 -4 -4 по сезону 1019.1 1011.6
СВ 4-5
{6}
3100 м слаб. морось 10/10 120 м +1.7 +1.3 97 -4 -4 по сезону 1019.0 1011.5
СВ 4-5
{7}
3400 м в посл. час морось 10/10 120 м +1.7 +1.2 96 -4 -4 прохладно 1018.8 1011.3 0.0
СВ 3-5
{5}
3400 м слаб. морось 10/10 120 м +1.8 +1.4 97 -3 -3 по сезону 1018.6 1011.1
СВ 3-5
{5}
2300 м морось 10/10 120 м +1.8 +1.5 98 -3 -3 тепло 1018.7 1011.2
СВ 3-4
{5}
3300 м в посл. час морось 10/10 120 м +1.8 +1.5 98 -3 -3 по сезону 1018.4 1010.9 0.1
СВ 3-4
{5}
2000 м в посл. час морось 10/10 120 м +1.8 +1.6 99 -3 -3 по сезону 1018.5 1011.0
СВ 3-3
{4}
2600 м в посл. час дождь 10/10 150 м +1.7 +1.4 98 -3 -3 тепло 1018.3 1010.8
СВ 3-4
{5}
2000 м осадки 10/10 120 м +1.6 +1.3 98 -3 -3 по сезону 1018.4 1010.9 +1.2 +1.8 0.2 0.3
СВ 3-4
{4}
6000 м слаб. дождь со снегом 10/10 150 м +1.3 +0.9 97 -3 -3 по сезону 1018.5 1011.0
СВ 2-3
{3}
4700 м слаб. морось с дождем 10/10 120 м +1.3 +0.9 97 -2 -2 тепло 1018.8 1011.3
В 2-3
{4}
7000 м слаб. дождь 10/10 120 м +1.5 +1.0 96 -2 -2 по сезону 1019.0 1011.5 1
СВ 2-3
{4}
10 км слаб. дождь 10/10 150 м +1.9 +1.2 95 -2 -2 по сезону 1019.1 1011.6
СВ 3-4
{4}
14 км слаб. морось с дождем 10/10 180 м +1.8 +1.1 95 -3 -3 тепло 1018.9 1011.4
В 2-3
{4}
15 км слаб. морось 10/10 150 м +1.7 +0.9 94 -2 -2 прохладно 1018.6 1011.1 0.8
СВ 1-2
{3}
19 км слаб. морось 10/10 180 м +1.9 +1.2 95 0 0 по сезону 1018.5 1011.0
С 1-2
{2}
22 км в посл. час морось 10/10 210 м +1.9 +1.0 94 0 0 тепло 1018.5 1011.0
СВ 1-1
{3}
20 км слаб. морось 10/10 180 м +1.9 +1.3 96 0 0 по сезону 1018.5 1011.0 0.0
С 1-1
{1}
11 км в посл. час морось 10/10 180 м +1.8 +1.3 96 -0 -0 по сезону 1018.7 1011.2
СЗ 1-1
{1}
7000 м в посл. час морось 10/10 210 м +1.8 +1.4 97 -0 -0 тепло 1018.9 1011.4
Местоположение метеостанции Ганновер (Германия): широта 52.47 долгота 9.70 высота над уровнем моря 55 м.
В архиве по умолчанию представлена погода в Ганновере за последнюю неделю. Архивные данные за месяц целиком и за предыдущие месяцы, начиная с января 2011 года, Вы можете получить, выбрав интересующий диапазон дат из раскрывающегося списка и нажав кнопку "Найти!".
*Определитесь, кто Вы:
Внимание! Время в таблицах - всемирное. Для получения местного времени необходимо прибавить поправку, которая равна 1 ч.
Смотрите также архив погоды в соседних городах и на ближайших метеорологических станциях:
Партнеры нашего сайта:      
Пояснения к столбцам:
  • Ветер - указаны скорость ветра в м/с - средняя за 10 мин, порывы в срок и между сроками (в фигурных скобках) и направление, откуда дует ветер: С - северный,
  • СВ - северо-восточный, В - восточный, ЮВ - юго-восточный, Ю - южный, ЮЗ - юго-западный, З - западный, СЗ - северо-западный.
  • Видимость - горизонтальная дальность видимости в метрах или километрах. При видимости от 1 до 10 км при отсутствии осадков обычно наблюдается дымка, при ухудшении видимости до 1 км и менее - туман. В сухую погоду видимость может ухудшаться дымом, пылью или мглою.
  • Явления - указаны атмосферные явления, наблюдавшиеся в срок или в последний час перед сроком; фигурными скобками обозначены явления, наблюдавшиеся между сроками (за 1-3 часа до срока); квадратными скобками обозначены град или гололедные отложения с указанием их диаметра в мм.
  • Облачность - указаны через наклонную черту общая и нижняя облачность в баллах и высота нижней границы облаков в метрах; квадратными скобками обозначены формы облаков: Ci - перистые, Cs - перисто-слоистые, Cc - перисто-кучевые, Ac - высококучевые, As - высокослоистые, Sc - слоисто-кучевые, Ns - слоисто-дождевые, Cu - кучевые, Cb - кучево-дождевые. Подробнее классификацию облаков см. в Атласе облаков (PDF).
  • T - Температура воздуха - температура, измеренная на высоте 2 м над землей.
  • Td - Температура точки росы - температура, при понижении до которой содержащийся в воздухе водяной пар достигнет насыщения.
  • f - Относительная влажность воздуха - влажноcть воздуха, измеренная на высоте 2 м над землей.
  • Te - Эффективная температура - температура, которую ощущает одетый по сезону человек в тени. Характеристика душности погоды. При расчете учитывается влияние влажности воздуха и скорости ветра на теплоощущения человека.
  • Tes - Эффективная температура на солнце - температура, которую ощущает человек, с поправкой на солнечный нагрев. Характеристика знойности погоды. Зависит от высоты солнца над горизонтом, облачности и скорости ветра. Ночью, в пасмурную погоду, а также при ветре 12 м/с и более поправка равна нулю.
  • P - Атмосферное давление - приведенное к уровню моря атмосферное давление.
  • Po - Атмосферное давление - измеренное на уровне метеостанции атмосферное давление.
  • Tmin - Минимальная температура - минимум температуры воздуха на высоте 2 м над землей.
  • Tmax - Максимальная температура - максимум температуры воздуха на высоте 2 м над землей.
  • R - Количество осадков - Количество выпавших осадков за период времени, мм. При наведении курсора мыши на число - период времени, за который выпало указанное количество осадков.
  • R24 - Количество осадков - Количество выпавших осадков за 24 часа, мм.
  • S - Снежный покров - Высота снежного покрова, см. При наведении курсора мыши на число - состояние снежного покрова и степень покрытия местности в баллах.